Weather in Goritsy

Russia / Tver Oblast     56°51′45″N   31°52′21″E
temp.,
°C
wind,
m/s
gust,
m/s
humid.,
%
clouds,
%
prec.,
mm/h
press.,
hPa
HPBL,
m
17 september, fri
fri1700:00+3ese2481100 0.0 102178
03:00+2ese238499 0.0 102150
06:00+2e2487100 0.0 102185
09:00+6e357198 0.0 1020379
12:00+9e455261 0.0 10191335
15:00+11e454741 0.0 10191538
18:00+9e475565 0.0 1020738
21:00+3ene3107769 0.0 1021227
18 september, sat
sat1800:00+3e4127581 0.0 1022339
03:00+2e41378100 0.0 1023384
06:00+2ene41383100 0.0 1023411
09:00+5e5126964 0.0 1022763
12:00+10e61049100 0.0 10221222
15:00+11e6944100 0.0 10211369
18:00+9e51155100 0.0 10201176
21:00+7ene61366100 0.0 1021976
19 september, sun
sun1900:00+5e61473100 0.0 1021777
03:00+5e51474100 0.0 1020775
06:00+4ene61474100 0.0 1020660
09:00+5e61569100 0.0 1020734
12:00+9e61358100 0.0 10201047
15:00+10e61156100 0.0 10191333
18:00+7e61266100 0.4 10191115
21:00+5e51383100 1.3 1020998
20 september, mon
mon2000:00+5ene61375100 0.2 1020894
03:00+5ene51272100 0.3 1019832
06:00+4ene61372100 0.0 1019856
09:00+5ene61468100 0.0 1019896
12:00+8ene7145984 0.0 10191134
15:00+7ene61261100 0.0 10181303
18:00+5ene61471100 0.1 10191204
21:00+5ene61475100 0.1 10191093
21 september, tue
tue2100:00+3ne51389100 0.3 1018904
03:00+2ne41297100 1.1 1017678
06:00+1ne41298100 2.5 1017537
09:00+2ne41197100 3.9 1016518
12:00+2ne4997100 0.2 1016530
15:00+3ne4898100 0.3 1016546
18:00+2nne3998100 0.7 1016484
21:00+1nne4998100 1.7 1016406